Regional Weather Roundup
Issued by NWS Kansas City/Pleasant Hill, MO

Home | Current Version | Previous Version | Text Only | Print | Product List | Glossary On
Versions: 1 2 3 4 5 6 7 8 9 10 11 12 13 14 15 16 17 18 19 20 21 22 23 24 25 26 27 28 29 30 31 32 33 34 35 36 37 38 39 40 41 42 43 44 45 46 47 48 49 50
000
ASUS43 KEAX 301804
RWREAX

WEATHER ROUNDUP FOR EASTERN KANSAS AND NORTHWEST MISSOURI
NATIONAL WEATHER SERVICE KANSAS CITY/PLEASANT HILL MO
100 PM CDT TUE SEP 30 2014

KSZ040-057-103>105-MOZ028-029-037-043-301900-
...KANSAS CITY METROPOLITAN AREA...

CITY           SKY/WX    TMP DP  RH WIND       PRES   REMARKS
K.C. INTL      MOSUNNY   82  60  47 S15       29.88F
6HR MIN TEMP:  61; 6HR MAX TEMP:  82;

K.C. DOWNTOWN  SUNNY     84  58  40 S13       29.87F
6HR MIN TEMP:  63; 6HR MAX TEMP:  84;

LEES SUMMIT    SUNNY     82  59  45 S12       29.90F
OLATHE - IXD   SUNNY     81  59  47 S15G25    29.89F
6HR MIN TEMP:  60; 6HR MAX TEMP:  82;

OLATHE - OJC   SUNNY     82  60  47 S14G21    29.88F
6HR MIN TEMP:  60; 6HR MAX TEMP:  82;

LAWRENCE       SUNNY     83  58  42 S17G24    29.86F

$$

MOZ001>008-011>017-020>025-030>033-038>040-044>046-053-054-301900-
...NORTHERN AND CENTRAL MISSOURI...

CITY           SKY/WX    TMP DP  RH WIND       PRES   REMARKS
ST. JOSEPH     SUNNY     84  58  40 S17G25    29.86F
6HR MIN TEMP:  56; 6HR MAX TEMP:  85;

MOSBY          CLEAR     81  59  47 S10G16    29.88F
WHITEMAN AFB   MOSUNNY   82  60  47 W8        29.90F
6HR MIN TEMP:  56; 6HR MAX TEMP:  84;

CLINTON        SUNNY     82  63  51 SW7       29.91F HAZE
SEDALIA        MOSUNNY   86  60  41 S9        29.92F
6HR MIN TEMP:  59; 6HR MAX TEMP:  86;

WARSAW         NOT AVBL
MARSHALL       MOSUNNY   86  57  37 S9        29.91F
CHILLICOTHE      N/A     83  61  47 SE7       29.90F
6HR MIN TEMP:  56; 6HR MAX TEMP:  83;

MOBERLY        SUNNY     86  52  30 S6        29.94F
KIRKSVILLE     MOSUNNY   69  61  75 E12       29.96F
6HR MIN TEMP:  59; 6HR MAX TEMP:  69;


$$

MOZ041-047>049-056>058-063>065-088>090-097-301900-
...EASTERN AND SOUTHERN MISSOURI...

CITY           SKY/WX    TMP DP  RH WIND       PRES   REMARKS
ST. LOUIS INTL MOSUNNY   82  57  42 CALM      29.95F
6HR MIN TEMP:  62; 6HR MAX TEMP:  85;

SPIRIT OF STL  MOSUNNY   82  62  50 CALM      29.93F
COLUMBIA       SUNNY     83  58  42 S8        29.92F
JEFFERSON CITY SUNNY     84  58  40 S7        29.91F
ROLLA          MOSUNNY   80  56  43 S8        29.93F
LEBANON        SUNNY     81  54  39 SW9       29.95F
OSAGE BEACH    PTSUNNY   82  57  42 W5        29.92F
SPRINGFIELD    MOSUNNY   79  59  50 SW12      29.94F
BRANSON        PTSUNNY   84  55  37 SE10      29.96F
NEVADA         SUNNY     82  61  47 S12       29.93F
JOPLIN         MOSUNNY   81  58  45 S15       29.92F
WEST PLAINS    MOSUNNY   81  52  36 VRB7      29.97F

$$

IAZ060-094-KSZ022-034>040-054-083-096-NEZ052-066-093-301900-
...KANSAS...SOUTHEAST NEBRASKA AND IOWA...

CITY           SKY/WX    TMP DP  RH WIND       PRES   REMARKS
TOPEKA         MOSUNNY   86  60  41 S15       29.85F
6HR MIN TEMP:  60; 6HR MAX TEMP:  86;

MANHATTAN      CLOUDY    78  60  53 SW12      29.82F
EMPORIA        SUNNY     81  59  47 S23G29    29.86F
CHANUTE        SUNNY     81  61  50 S15       29.89F
WICHITA        PTSUNNY   85  60  42 S22G30    29.81F
OMAHA          CLOUDY    75  60  59 S7        29.83F
LINCOLN        LGT RAIN  65  62  90 S9        29.85F
FALLS CITY     MOSUNNY   82  58  43 S12G24    29.83F
LAMONI         SUNNY     75  63  66 SE8       29.90F
DES MOINES     CLOUDY    63  56  78 E12       29.93F

$$




USA.gov is the U.S. government's official web portal to all federal, state and local government web resources and services.